Regional Weather Roundup
Issued by NWS

Home | Current Version | Previous Version | Text Only | Print | Product List | Glossary On
Versions: 1 2 3 4 5 6 7 8 9 10 11 12 13 14 15 16 17 18 19 20 21 22 23 24 25 26 27
000
ASUS42 KFFC 291303
RWRGA
WEATHER ROUNDUP FOR GEORGIA
NATIONAL WEATHER SERVICE PEACHTREE CITY GA
900 AM EDT SUN MAY 29 2016

NOTE: "FAIR" INDICATES FEW OR NO CLOUDS BELOW 12,000 FEET WITH NO
SIGNIFICANT WEATHER AND/OR OBSTRUCTIONS TO VISIBILITY.

* = USE WITH CAUTION. THE STATIONS MARKED WITH AN ASTERISK MAY NOT
REPORT WEATHER SUCH AS PRECIPITATION, FOG, OR THUNDER AND ARE NOT
QUALITY CONTROLLED BY NWS.

THE REMARK "TC" DENOTES TEMPERATURE READING IN DEGREES CELSIUS.

GAZ001>058-291400-
NORTH GEORGIA

CITY           SKY/WX    TMP DP  RH WIND       PRES   REMARKS
ATLANTA        CLOUDY    74  62  66 NW5       30.14R
ATHENS         PTSUNNY   71  66  84 CALM      30.13R
CHAMBLEE       PTSUNNY   74  64  71 CALM      30.14S
ROME           CLOUDY    68  59  73 CALM      30.14R
WEST ATLANTA   CLOUDY    69  62  78 CALM      30.14S
GAINESVILLE    CLOUDY    69  62  78 W7        30.17R
CARTERSVILLE   MOSUNNY   69  63  81 CALM      30.15R


CITY           SKY/WX    TMP DP  RH WIND       PRES   REMARKS
DALTON*        CLOUDY    68  63  83 CALM      30.15R
LAWRENCEVILLE* SUNNY     73  66  78 CALM      30.15R
KENNESAW*      PTSUNNY   70  63  78 CALM      30.13R
CANTON*        MOSUNNY   70  61  73 CALM      30.16S
BLAIRSVILLE*     N/A    N/A N/A N/A MISG      30.19S
$$

GAZ059>098-102>109-291400-
CENTRAL GEORGIA

CITY           SKY/WX    TMP DP  RH WIND       PRES   REMARKS
AUGUSTA-BUSH   RAIN      66  65  96 NW16      30.07R FOG
AUGUSTA-DANIEL HVY RAIN  67  64  90 N10       30.10R FOG
COLUMBUS       SUNNY     73  64  73 CALM      30.12R
MACON          CLOUDY    71  66  84 CALM      30.12S
ROBINS AFB     CLOUDY    70  66  88 NW2       30.11S


CITY           SKY/WX    TMP DP  RH WIND       PRES   REMARKS
LAGRANGE*      SUNNY     74  68  82 CALM      30.14R
SYLVANIA*      HVY RAIN  69  67  93 N17G25    30.02R
MILLEDGEVILLE* CLOUDY    72  68  88 NW3       30.12S
$$

GAZ099>101-110>166-291400-
SOUTH GEORGIA

CITY           SKY/WX    TMP DP  RH WIND       PRES   REMARKS
SAVANNAH       RAIN      70  66  87 NW20G33   29.98S FOG
VALDOSTA       SUNNY     76  67  73 CALM      30.10R
ALMA           MOSUNNY   71  65  81 W5        30.09R
ST SIMONS      SUNNY     73  66  78 W10G17    30.05R
FT STEWART     CLOUDY    72  65  78 W16       30.01R
ALBANY         SUNNY     77  65  66 VRB3      30.13R
HUNTER AFB     PTSUNNY   69  69 100 W8        29.96R
MOODY AFB      SUNNY     76  65  68 N5        30.09R
BRUNSWICK      MOSUNNY   75  68  78 W10G16    30.06R


CITY           SKY/WX    TMP DP  RH WIND       PRES   REMARKS
BAINBRIDGE*    SUNNY     77  68  73 E5        30.11R
MOULTRIE*      SUNNY     73  64  73 NE3       30.11R
VIDALIA*       CLOUDY    70  63  78 NW12G17   30.09R
WAYCROSS*      MOSUNNY   74  66  77 NW7       30.09R
DOUGLAS*       MOSUNNY   72  64  78 NW5       30.12R
$$




USA.gov is the U.S. government's official web portal to all federal, state and local government web resources and services.